When you browse on this site, cookies collect data to enhance your experience and personalize the content and advertising you see.
Visit our Privacy Policy to learn more. By continuing to use the site, you agree to this use of cookies and data.
  • In Latvia
  • List of Countries
  • For 7 days
  • Water Temperature
  • Weather Map
  • Weather Widgets
  • user-avatar
    Login

    Hourly Weather Budyrovka

    Today, 25 August, Sunday

    Time Temperature Precipitation Wind Pressure Humidity
    00:00 +16°C° 0 mm 2 mps 750 mmHg 73%
    01:00 +16°C° 0 mm 2 mps 750 mmHg 76%
    02:00 +16°C° 0 mm 2 mps 750 mmHg 79%
    03:00 +15°C° 0 mm 2 mps 750 mmHg 83%
    04:00 +14°C° 0 mm 3 mps 750 mmHg 86%
    05:00 +14°C° 0 mm 3 mps 750 mmHg 90%
    06:00 +13°C° 0 mm 3 mps 750 mmHg 93%
    07:00 +16°C° 0 mm 3 mps 751 mmHg 87%
    08:00 +17°C° 0 mm 3 mps 751 mmHg 81%
    09:00 +18°C° 0 mm 4 mps 751 mmHg 76%
    10:00 +19°C° 0 mm 4 mps 751 mmHg 70%
    11:00 +20°C° 0 mm 4 mps 751 mmHg 65%
    12:00 +21°C° 0 mm 4 mps 751 mmHg 59%
    13:00 +21°C° 0 mm 4 mps 752 mmHg 59%
    14:00 +21°C° 0 mm 4 mps 752 mmHg 58%
    15:00 +22°C° 0 mm 4 mps 752 mmHg 57%
    16:00 +21°C° 0 mm 4 mps 752 mmHg 61%
    17:00 +20°C° 0 mm 3 mps 752 mmHg 65%
    18:00 +20°C° 0 mm 3 mps 752 mmHg 68%
    19:00 +18°C° 0 mm 3 mps 752 mmHg 72%
    20:00 +17°C° 0 mm 3 mps 753 mmHg 76%
    21:00 +16°C° 0 mm 2 mps 753 mmHg 81%
    22:00 +15°C° 0 mm 2 mps 753 mmHg 83%
    23:00 +14°C° 0 mm 2 mps 753 mmHg 86%

    Tomorrow, 26 August, Monday

    Time Temperature Precipitation Wind Pressure Humidity
    00:00 +14°C° 0 mm 2 mps 754 mmHg 89%
    01:00 +13°C° 0 mm 2 mps 754 mmHg 90%
    02:00 +13°C° 0 mm 2 mps 754 mmHg 91%
    03:00 +12°C° 0 mm 1 mps 754 mmHg 91%
    04:00 +12°C° 0 mm 1 mps 754 mmHg 91%
    05:00 +12°C° 0 mm 1 mps 754 mmHg 92%
    06:00 +11°C° 0 mm 1 mps 754 mmHg 92%
    07:00 +13°C° 0 mm 1 mps 754 mmHg 85%
    08:00 +15°C° 0 mm 1 mps 755 mmHg 78%
    09:00 +16°C° 0 mm 1 mps 755 mmHg 72%
    10:00 +19°C° 0 mm 1 mps 754 mmHg 66%
    11:00 +20°C° 0 mm 1 mps 754 mmHg 61%
    12:00 +21°C° 0 mm 1 mps 754 mmHg 56%
    13:00 +22°C° 0 mm 1 mps 754 mmHg 53%
    14:00 +22°C° 0 mm 1 mps 754 mmHg 50%
    15:00 +23°C° 0 mm 1 mps 753 mmHg 47%
    16:00 +22°C° 0 mm 1 mps 753 mmHg 51%
    17:00 +22°C° 0 mm 1 mps 752 mmHg 54%
    18:00 +22°C° 0 mm 1 mps 752 mmHg 58%
    19:00 +20°C° 0 mm 1 mps 752 mmHg 60%
    20:00 +19°C° 0 mm 1 mps 752 mmHg 63%
    21:00 +18°C° 0 mm 1 mps 752 mmHg 66%
    22:00 +16°C° 0 mm 2 mps 751 mmHg 69%
    23:00 +16°C° 0 mm 2 mps 751 mmHg 71%

    Day after tomorrow, 27 August, Tuesday

    Time Temperature Precipitation Wind Pressure Humidity
    00:00 +15°C° 0 mm 2 mps 751 mmHg 74%
    01:00 +14°C° 0 mm 3 mps 750 mmHg 76%
    02:00 +14°C° 0 mm 3 mps 750 mmHg 77%
    03:00 +13°C° 0 mm 3 mps 750 mmHg 79%
    04:00 +13°C° 0 mm 3 mps 749 mmHg 80%
    05:00 +13°C° 0 mm 4 mps 749 mmHg 81%
    06:00 +13°C° 0 mm 4 mps 748 mmHg 82%
    07:00 +15°C° 0 mm 4 mps 748 mmHg 80%
    08:00 +16°C° 0 mm 5 mps 748 mmHg 77%
    09:00 +17°C° 0 mm 5 mps 747 mmHg 75%
    10:00 +19°C° 0.4 mm 6 mps 747 mmHg 73%
    11:00 +20°C° 0.4 mm 6 mps 747 mmHg 71%
    12:00 +21°C° 0.4 mm 6 mps 746 mmHg 69%
    13:00 +22°C° 0.3 mm 6 mps 746 mmHg 68%
    14:00 +22°C° 0.3 mm 6 mps 746 mmHg 66%
    15:00 +22°C° 0.3 mm 6 mps 746 mmHg 65%
    16:00 +21°C° 0 mm 6 mps 746 mmHg 65%
    17:00 +21°C° 0 mm 5 mps 746 mmHg 64%
    18:00 +20°C° 0 mm 5 mps 745 mmHg 64%
    19:00 +19°C° 0 mm 4 mps 746 mmHg 67%
    20:00 +17°C° 0 mm 4 mps 746 mmHg 69%
    21:00 +15°C° 0 mm 4 mps 746 mmHg 72%
    22:00 +14°C° 0 mm 4 mps 747 mmHg 74%
    23:00 +14°C° 0 mm 4 mps 747 mmHg 77%

    28 August, Wednesday

    Time Temperature Precipitation Wind Pressure Humidity
    00:00 +13°C° 0 mm 4 mps 747 mmHg 79%
    01:00 +12°C° 0 mm 4 mps 747 mmHg 82%
    02:00 +12°C° 0 mm 4 mps 747 mmHg 84%
    03:00 +11°C° 0 mm 4 mps 747 mmHg 86%
    04:00 +10°C° 0 mm 4 mps 748 mmHg 86%
    05:00 +8°C° 0 mm 4 mps 748 mmHg 86%
    06:00 +8°C° 0 mm 5 mps 748 mmHg 86%
    07:00 +8°C° 0 mm 5 mps 748 mmHg 78%
    08:00 +9°C° 0 mm 6 mps 749 mmHg 71%
    09:00 +10°C° 0 mm 6 mps 749 mmHg 64%
    10:00 +10°C° 0 mm 6 mps 749 mmHg 60%
    11:00 +11°C° 0 mm 6 mps 749 mmHg 57%
    12:00 +13°C° 0 mm 6 mps 749 mmHg 54%
    13:00 +14°C° 0 mm 6 mps 749 mmHg 54%
    14:00 +14°C° 0 mm 6 mps 749 mmHg 54%
    15:00 +14°C° 0 mm 6 mps 749 mmHg 53%
    16:00 +13°C° 0 mm 6 mps 749 mmHg 57%
    17:00 +13°C° 0 mm 5 mps 750 mmHg 60%
    18:00 +12°C° 0 mm 5 mps 750 mmHg 63%
    19:00 +11°C° 0 mm 4 mps 750 mmHg 67%
    20:00 +10°C° 0 mm 3 mps 750 mmHg 72%
    21:00 +9°C° 0 mm 3 mps 751 mmHg 76%
    22:00 +8°C° 0 mm 3 mps 751 mmHg 77%
    23:00 +8°C° 0 mm 3 mps 751 mmHg 78%

    29 August, Thursday

    Time Temperature Precipitation Wind Pressure Humidity
    00:00 +8°C° 0 mm 3 mps 751 mmHg 79%
    01:00 +8°C° 0 mm 3 mps 751 mmHg 78%
    02:00 +8°C° 0 mm 3 mps 751 mmHg 77%
    03:00 +8°C° 0 mm 3 mps 751 mmHg 77%
    04:00 +7°C° 0 mm 3 mps 751 mmHg 81%
    05:00 +7°C° 0 mm 3 mps 752 mmHg 85%
    06:00 +5°C° 0 mm 3 mps 752 mmHg 89%
    07:00 +6°C° 0 mm 4 mps 752 mmHg 80%
    08:00 +7°C° 0 mm 5 mps 752 mmHg 72%
    09:00 +9°C° 0 mm 6 mps 752 mmHg 63%
    10:00 +10°C° 0 mm 5 mps 752 mmHg 60%
    11:00 +12°C° 0 mm 5 mps 752 mmHg 57%
    12:00 +13°C° 0 mm 5 mps 752 mmHg 54%
    13:00 +13°C° 0 mm 5 mps 752 mmHg 54%
    14:00 +14°C° 0 mm 5 mps 752 mmHg 53%
    15:00 +14°C° 0 mm 5 mps 752 mmHg 53%
    16:00 +14°C° 0 mm 4 mps 752 mmHg 56%
    17:00 +14°C° 0 mm 4 mps 752 mmHg 59%
    18:00 +13°C° 0 mm 4 mps 752 mmHg 61%
    19:00 +12°C° 0 mm 3 mps 752 mmHg 66%
    20:00 +10°C° 0 mm 3 mps 752 mmHg 70%
    21:00 +9°C° 0 mm 3 mps 752 mmHg 74%
    22:00 +8°C° 0 mm 3 mps 752 mmHg 76%
    23:00 +8°C° 0 mm 2 mps 752 mmHg 78%

    30 August, Friday

    Time Temperature Precipitation Wind Pressure Humidity
    00:00 +7°C° 0 mm 2 mps 753 mmHg 80%
    01:00 +7°C° 0 mm 2 mps 753 mmHg 81%
    02:00 +6°C° 0 mm 2 mps 753 mmHg 83%
    03:00 +6°C° 0 mm 2 mps 753 mmHg 85%
    04:00 +5°C° 0 mm 2 mps 753 mmHg 86%
    05:00 +5°C° 0 mm 2 mps 753 mmHg 87%
    06:00 +5°C° 0 mm 2 mps 753 mmHg 88%
    07:00 +7°C° 0 mm 2 mps 753 mmHg 80%
    08:00 +9°C° 0 mm 3 mps 753 mmHg 73%
    09:00 +10°C° 0 mm 3 mps 753 mmHg 65%
    10:00 +12°C° 0 mm 3 mps 753 mmHg 60%
    11:00 +13°C° 0 mm 3 mps 753 mmHg 55%
    12:00 +14°C° 0 mm 3 mps 753 mmHg 49%
    13:00 +16°C° 0 mm 3 mps 752 mmHg 48%
    14:00 +16°C° 0 mm 3 mps 752 mmHg 46%
    15:00 +17°C° 0 mm 3 mps 751 mmHg 45%
    16:00 +16°C° 0 mm 3 mps 751 mmHg 50%
    17:00 +16°C° 0 mm 3 mps 750 mmHg 55%
    18:00 +14°C° 0 mm 3 mps 750 mmHg 61%
    19:00 +14°C° 0 mm 3 mps 750 mmHg 62%
    20:00 +13°C° 0 mm 3 mps 750 mmHg 64%
    21:00 +12°C° 0 mm 3 mps 750 mmHg 65%
    22:00 +12°C° 0 mm 4 mps 750 mmHg 69%
    23:00 +13°C° 0 mm 4 mps 750 mmHg 73%
    Show more